| time (UTC) | temp C | wind direction | speed KPH | gust KPH | rain 1hr cm | rain 24hr cm | rain mn cm | humidity % | barometer mb |
| 20260505041531 | 10 | 0 | 0.0 | 4.8 | 0.00 | 0.00 | 0.00 | 81 | 1011.7 |
| 20260505041015 | 10 | 0 | 0.0 | 4.8 | 0.00 | 0.00 | 0.00 | 81 | 1011.6 |
| 20260505040513 | 10 | 0 | 1.6 | 4.8 | 0.00 | 0.00 | 0.00 | 81 | 1011.6 |
| 20260505040040 | 10 | 187 | 0.0 | 3.2 | 0.00 | 0.00 | 0.00 | 80 | 1011.7 |
| 20260505035514 | 10 | 0 | 0.0 | 4.8 | 0.00 | 0.00 | 0.00 | 80 | 1011.6 |
| 20260505035014 | 10 | 0 | 0.0 | 6.4 | 0.00 | 0.00 | 0.00 | 79 | 1011.7 |
| 20260505034530 | 10 | 113 | 0.0 | 8.0 | 0.00 | 0.00 | 0.00 | 79 | 1011.6 |
| 20260505034016 | 10 | 0 | 0.0 | 8.0 | 0.00 | 0.00 | 0.00 | 79 | 1011.5 |
| 20260505033516 | 10 | 0 | 0.0 | 8.0 | 0.00 | 0.00 | 0.00 | 78 | 1011.4 |
| 20260505033040 | 11 | 0 | 0.0 | 8.0 | 0.00 | 0.00 | 0.00 | 78 | 1011.6 |
| 20260505032511 | 11 | 124 | 0.0 | 11.3 | 0.00 | 0.00 | 0.00 | 78 | 1011.4 |
| 20260505032018 | 11 | 0 | 0.0 | 11.3 | 0.00 | 0.00 | 0.00 | 78 | 1011.5 |
| 20260505031533 | 11 | 144 | 1.6 | 9.7 | 0.00 | 0.00 | 0.00 | 77 | 1011.5 |
| 20260505031016 | 11 | 0 | 0.0 | 8.0 | 0.00 | 0.00 | 0.00 | 77 | 1011.6 |
| 20260505030517 | 11 | 152 | 0.0 | 8.0 | 0.00 | 0.00 | 0.00 | 77 | 1011.6 |
| 20260505030029 | 11 | 255 | 1.6 | 8.0 | 0.00 | 0.00 | 0.00 | 76 | 1011.5 |
| 20260505025513 | 11 | 145 | 1.6 | 8.0 | 0.00 | 0.00 | 0.00 | 76 | 1011.7 |
| 20260505025011 | 11 | 189 | 0.0 | 6.4 | 0.00 | 0.00 | 0.00 | 76 | 1011.8 |
| 20260505024530 | 11 | 0 | 1.6 | 9.7 | 0.00 | 0.00 | 0.00 | 76 | 1011.6 |
| 20260505024010 | 11 | 0 | 1.6 | 9.7 | 0.00 | 0.00 | 0.00 | 75 | 1011.7 |
| 20260505023511 | 11 | 150 | 3.2 | 9.7 | 0.00 | 0.00 | 0.00 | 75 | 1011.6 |
| 20260505023028 | 11 | 171 | 0.0 | 11.3 | 0.00 | 0.00 | 0.00 | 75 | 1011.7 |
| 20260505022513 | 11 | 0 | 0.0 | 11.3 | 0.00 | 0.00 | 0.00 | 74 | 1011.5 |
| 20260505022010 | 11 | 173 | 1.6 | 11.3 | 0.00 | 0.00 | 0.00 | 74 | 1011.6 |
| 20260505021532 | 11 | 149 | 1.6 | 8.0 | 0.00 | 0.00 | 0.00 | 73 | 1011.7 |
| 20260505021012 | 12 | 165 | 1.6 | 8.0 | 0.00 | 0.00 | 0.00 | 73 | 1011.8 |
| 20260505020512 | 12 | 131 | 1.6 | 8.0 | 0.00 | 0.00 | 0.00 | 73 | 1011.7 |
| 20260505020030 | 12 | 0 | 0.0 | 6.4 | 0.00 | 0.00 | 0.00 | 72 | 1011.7 |
| 20260505015510 | 12 | 134 | 1.6 | 9.7 | 0.00 | 0.00 | 0.00 | 72 | 1011.6 |
| 20260505015012 | 12 | 109 | 3.2 | 11.3 | 0.00 | 0.00 | 0.00 | 71 | 1011.6 |
| 20260505014530 | 12 | 0 | 1.6 | 11.3 | 0.00 | 0.00 | 0.00 | 71 | 1011.6 |
| 20260505014010 | 12 | 170 | 1.6 | 9.7 | 0.00 | 0.00 | 0.00 | 70 | 1011.7 |
| 20260505013510 | 12 | 0 | 0.0 | 11.3 | 0.00 | 0.00 | 0.00 | 70 | 1011.6 |
| 20260505013029 | 12 | 139 | 1.6 | 12.9 | 0.00 | 0.00 | 0.00 | 70 | 1011.6 |
| 20260505012510 | 12 | 0 | 1.6 | 12.9 | 0.00 | 0.00 | 0.00 | 69 | 1011.5 |
| 20260505012013 | 12 | 166 | 1.6 | 6.4 | 0.00 | 0.00 | 0.00 | 68 | 1011.4 |
| 20260505011530 | 13 | 177 | 0.0 | 14.5 | 0.00 | 0.00 | 0.00 | 67 | 1011.4 |
| 20260505011012 | 13 | 0 | 1.6 | 14.5 | 0.00 | 0.00 | 0.00 | 66 | 1011.2 |
| 20260505010510 | 13 | 215 | 1.6 | 16.1 | 0.00 | 0.00 | 0.00 | 65 | 1011.1 |
| 20260505010030 | 13 | 217 | 3.2 | 16.1 | 0.00 | 0.00 | 0.00 | 64 | 1011.1 |
| 20260505005513 | 13 | 160 | 1.6 | 11.3 | 0.00 | 0.00 | 0.00 | 64 | 1010.9 |
| 20260505005010 | 13 | 190 | 3.2 | 12.9 | 0.00 | 0.00 | 0.00 | 63 | 1010.7 |
| 20260505004533 | 13 | 178 | 4.8 | 14.5 | 0.00 | 0.00 | 0.00 | 62 | 1010.7 |
| 20260505004009 | 13 | 161 | 3.2 | 14.5 | 0.00 | 0.00 | 0.00 | 62 | 1010.6 |
| 20260505003513 | 13 | 140 | 3.2 | 11.3 | 0.00 | 0.00 | 0.00 | 61 | 1010.5 |
| 20260505003032 | 13 | 155 | 3.2 | 14.5 | 0.00 | 0.00 | 0.00 | 60 | 1010.3 |
| 20260505002514 | 13 | 0 | 1.6 | 14.5 | 0.00 | 0.00 | 0.00 | 59 | 1010.3 |
| 20260505002014 | 13 | 180 | 3.2 | 14.5 | 0.00 | 0.00 | 0.00 | 59 | 1010.2 |
| 20260505001532 | 13 | 175 | 4.8 | 12.9 | 0.00 | 0.00 | 0.00 | 59 | 1010.0 |
| 20260505001016 | 13 | 216 | 3.2 | 12.9 | 0.00 | 0.00 | 0.00 | 60 | 1009.9 |
| 20260505000514 | 14 | 91 | 1.6 | 12.9 | 0.00 | 0.00 | 0.00 | 60 | 1010.0 |
| 20260505000033 | 14 | 0 | 4.8 | 12.9 | 0.00 | 0.00 | 0.00 | 59 | 1009.8 |
| 20260504235514 | 14 | 192 | 3.2 | 17.7 | 0.00 | 0.00 | 0.00 | 59 | 1009.7 |
| 20260504235014 | 14 | 265 | 1.6 | 19.3 | 0.00 | 0.00 | 0.00 | 59 | 1009.6 |
| 20260504234530 | 14 | 132 | 6.4 | 19.3 | 0.00 | 0.00 | 0.00 | 59 | 1009.6 |
| 20260504234015 | 15 | 147 | 1.6 | 19.3 | 0.00 | 0.00 | 0.00 | 58 | 1009.4 |
| 20260504233515 | 15 | 198 | 4.8 | 19.3 | 0.00 | 0.00 | 0.00 | 57 | 1009.4 |
| 20260504233032 | 15 | 136 | 1.6 | 11.3 | 0.00 | 0.00 | 0.00 | 57 | 1009.4 |
| 20260504232514 | 15 | 170 | 4.8 | 16.1 | 0.00 | 0.00 | 0.00 | 56 | 1009.3 |
| 20260504232015 | 15 | 167 | 4.8 | 16.1 | 0.00 | 0.00 | 0.00 | 55 | 1009.3 |
| 20260504231532 | 15 | 157 | 3.2 | 24.1 | 0.00 | 0.00 | 0.00 | 55 | 1009.2 |
| 20260504231014 | 15 | 165 | 4.8 | 24.1 | 0.00 | 0.00 | 0.00 | 54 | 1009.1 |
| 20260504230515 | 16 | 209 | 3.2 | 19.3 | 0.00 | 0.00 | 0.00 | 53 | 1009.2 |
| 20260504230032 | 16 | 0 | 3.2 | 22.5 | 0.00 | 0.00 | 0.00 | 53 | 1008.9 |
| 20260504225519 | 16 | 192 | 6.4 | 22.5 | 0.00 | 0.00 | 0.00 | 51 | 1009.0 |
| 20260504225015 | 17 | 167 | 6.4 | 22.5 | 0.00 | 0.00 | 0.00 | 50 | 1009.0 |
| 20260504224530 | 17 | 246 | 6.4 | 17.7 | 0.00 | 0.00 | 0.00 | 49 | 1008.8 |
| 20260504224014 | 17 | 156 | 3.2 | 30.6 | 0.00 | 0.00 | 0.00 | 47 | 1008.8 |
| 20260504223515 | 17 | 176 | 6.4 | 30.6 | 0.00 | 0.00 | 0.00 | 46 | 1008.6 |
| 20260504223029 | 17 | 180 | 4.8 | 14.5 | 0.00 | 0.00 | 0.00 | 46 | 1008.7 |
| 20260504222515 | 18 | 154 | 1.6 | 16.1 | 0.00 | 0.00 | 0.00 | 46 | 1008.4 |
| 20260504222014 | 18 | 134 | 4.8 | 16.1 | 0.00 | 0.00 | 0.00 | 46 | 1008.5 |
| 20260504221530 | 18 | 191 | 4.8 | 19.3 | 0.00 | 0.00 | 0.00 | 46 | 1008.5 |
| 20260504221015 | 18 | 159 | 6.4 | 20.9 | 0.00 | 0.00 | 0.00 | 45 | 1008.4 |
| 20260504220515 | 18 | 179 | 6.4 | 29.0 | 0.00 | 0.00 | 0.00 | 45 | 1008.5 |
| 20260504220032 | 18 | 167 | 4.8 | 29.0 | 0.00 | 0.00 | 0.00 | 45 | 1008.5 |
| 20260504215514 | 18 | 224 | 4.8 | 17.7 | 0.00 | 0.00 | 0.00 | 45 | 1008.4 |
| 20260504215019 | 18 | 131 | 4.8 | 22.5 | 0.00 | 0.00 | 0.00 | 44 | 1008.4 |
| 20260504214535 | 18 | 170 | 6.4 | 22.5 | 0.00 | 0.00 | 0.00 | 44 | 1008.2 |
| 20260504214014 | 18 | 140 | 4.8 | 20.9 | 0.00 | 0.00 | 0.00 | 44 | 1008.2 |
| 20260504213516 | 18 | 194 | 6.4 | 20.9 | 0.00 | 0.00 | 0.00 | 45 | 1008.2 |
| 20260504213030 | 18 | 209 | 6.4 | 27.4 | 0.00 | 0.00 | 0.00 | 44 | 1008.1 |
| 20260504212515 | 19 | 155 | 8.0 | 27.4 | 0.00 | 0.00 | 0.00 | 44 | 1008.1 |
| 20260504212014 | 19 | 80 | 6.4 | 22.5 | 0.00 | 0.00 | 0.00 | 43 | 1008.2 |
| 20260504211532 | 19 | 0 | 4.8 | 25.7 | 0.00 | 0.00 | 0.00 | 43 | 1008.1 |
| 20260504211014 | 19 | 194 | 4.8 | 25.7 | 0.00 | 0.00 | 0.00 | 42 | 1007.9 |
| 20260504210514 | 19 | 178 | 3.2 | 22.5 | 0.00 | 0.00 | 0.00 | 43 | 1007.9 |
| 20260504210031 | 20 | 209 | 4.8 | 32.2 | 0.00 | 0.00 | 0.00 | 41 | 1007.8 |
| 20260504205514 | 20 | 167 | 4.8 | 32.2 | 0.00 | 0.00 | 0.00 | 40 | 1007.8 |
| 20260504205015 | 20 | 175 | 4.8 | 29.0 | 0.00 | 0.00 | 0.00 | 40 | 1007.8 |
| 20260504204532 | 20 | 208 | 6.4 | 14.5 | 0.00 | 0.00 | 0.00 | 41 | 1007.9 |
| 20260504204014 | 20 | 157 | 3.2 | 20.9 | 0.00 | 0.00 | 0.00 | 40 | 1008.1 |
| 20260504203515 | 20 | 159 | 6.4 | 20.9 | 0.00 | 0.00 | 0.00 | 40 | 1007.8 |
| 20260504203033 | 20 | 275 | 4.8 | 20.9 | 0.00 | 0.00 | 0.00 | 38 | 1007.9 |
| 20260504202515 | 20 | 360 | 4.8 | 29.0 | 0.00 | 0.00 | 0.00 | 39 | 1007.8 |
| 20260504202014 | 20 | 129 | 6.4 | 29.0 | 0.00 | 0.00 | 0.00 | 37 | 1007.8 |
| 20260504201529 | 20 | 185 | 3.2 | 17.7 | 0.00 | 0.00 | 0.00 | 37 | 1007.9 |
| 20260504201014 | 21 | 263 | 4.8 | 17.7 | 0.00 | 0.00 | 0.00 | 35 | 1008.0 |
| 20260504200515 | 21 | 21 | 4.8 | 12.9 | 0.00 | 0.00 | 0.00 | 34 | 1007.9 |
| 20260504200039 | 21 | 232 | 4.8 | 12.9 | 0.00 | 0.00 | 0.00 | 35 | 1008.0 |
| 20260504195518 | 21 | 256 | 3.2 | 16.1 | 0.00 | 0.00 | 0.00 | 35 | 1008.0 |
| 20260504195014 | 21 | 167 | 4.8 | 20.9 | 0.00 | 0.00 | 0.00 | 34 | 1008.0 |
| 20260504194533 | 21 | 61 | 3.2 | 20.9 | 0.00 | 0.00 | 0.00 | 34 | 1008.1 |
| 20260504194014 | 21 | 246 | 4.8 | 19.3 | 0.00 | 0.00 | 0.00 | 34 | 1007.9 |
| 20260504193514 | 21 | 206 | 3.2 | 17.7 | 0.00 | 0.00 | 0.00 | 33 | 1008.1 |
| 20260504193032 | 21 | 171 | 4.8 | 25.7 | 0.00 | 0.00 | 0.00 | 34 | 1008.0 |
| 20260504192514 | 21 | 319 | 6.4 | 25.7 | 0.00 | 0.00 | 0.00 | 33 | 1007.9 |
| 20260504192015 | 21 | 140 | 8.0 | 32.2 | 0.00 | 0.00 | 0.00 | 33 | 1008.0 |
| 20260504191546 | 21 | 157 | 8.0 | 32.2 | 0.00 | 0.00 | 0.00 | 33 | 1007.9 |
| 20260504191015 | 21 | 201 | 8.0 | 19.3 | 0.00 | 0.00 | 0.00 | 31 | 1008.1 |
| 20260504190515 | 21 | 255 | 4.8 | 17.7 | 0.00 | 0.00 | 0.00 | 32 | 1008.0 |
| 20260504190031 | 21 | 121 | 4.8 | 17.7 | 0.00 | 0.00 | 0.00 | 32 | 1008.1 |
| 20260504185514 | 21 | 243 | 6.4 | 17.7 | 0.00 | 0.00 | 0.00 | 31 | 1008.3 |
| 20260504185014 | 21 | 45 | 6.4 | 19.3 | 0.00 | 0.00 | 0.00 | 34 | 1008.3 |
| 20260504184538 | 21 | 268 | 4.8 | 19.3 | 0.00 | 0.00 | 0.00 | 32 | 1008.3 |
| 20260504184015 | 21 | 147 | 4.8 | 20.9 | 0.00 | 0.00 | 0.00 | 34 | 1008.2 |
| 20260504183515 | 21 | 123 | 4.8 | 20.9 | 0.00 | 0.00 | 0.00 | 34 | 1008.2 |
| 20260504183040 | 21 | 189 | 6.4 | 20.9 | 0.00 | 0.00 | 0.00 | 33 | 1008.3 |
| 20260504182514 | 21 | 230 | 3.2 | 27.4 | 0.00 | 0.00 | 0.00 | 33 | 1008.6 |
| 20260504182011 | 21 | 254 | 8.0 | 27.4 | 0.00 | 0.00 | 0.00 | 31 | 1008.6 |
| 20260504181532 | 21 | 98 | 8.0 | 27.4 | 0.00 | 0.00 | 0.00 | 34 | 1008.9 |
| 20260504181014 | 21 | 190 | 4.8 | 19.3 | 0.00 | 0.00 | 0.00 | 32 | 1008.6 |
| 20260504180516 | 21 | 208 | 8.0 | 25.7 | 0.00 | 0.00 | 0.00 | 33 | 1008.7 |
| 20260504180034 | 20 | 174 | 4.8 | 29.0 | 0.00 | 0.00 | 0.00 | 35 | 1008.8 |
| 20260504175514 | 20 | 307 | 9.7 | 29.0 | 0.00 | 0.00 | 0.00 | 31 | 1009.0 |
| 20260504175014 | 20 | 269 | 4.8 | 25.7 | 0.00 | 0.00 | 0.00 | 32 | 1008.7 |
| 20260504174531 | 20 | 173 | 4.8 | 20.9 | 0.00 | 0.00 | 0.00 | 34 | 1008.9 |
| 20260504174014 | 20 | 179 | 9.7 | 32.2 | 0.00 | 0.00 | 0.00 | 32 | 1008.7 |
| 20260504173513 | 20 | 219 | 6.4 | 32.2 | 0.00 | 0.00 | 0.00 | 33 | 1008.5 |
| 20260504173030 | 20 | 306 | 6.4 | 22.5 | 0.00 | 0.00 | 0.00 | 31 | 1008.7 |
| 20260504172515 | 20 | 181 | 6.4 | 25.7 | 0.00 | 0.00 | 0.00 | 33 | 1008.6 |
| 20260504172014 | 20 | 313 | 8.0 | 25.7 | 0.00 | 0.00 | 0.00 | 32 | 1008.7 |
| 20260504171531 | 20 | 155 | 6.4 | 25.7 | 0.00 | 0.00 | 0.00 | 33 | 1008.7 |
| 20260504171018 | 20 | 194 | 8.0 | 25.7 | 0.00 | 0.00 | 0.00 | 33 | 1008.7 |
| 20260504170519 | 21 | 192 | 4.8 | 19.3 | 0.00 | 0.00 | 0.00 | 36 | 1008.7 |
| 20260504151014 | 18 | 5 | 4.8 | 20.9 | 0.00 | 0.00 | 0.00 | 37 | 1010.0 |
| 20260504150516 | 18 | 0 | 4.8 | 20.9 | 0.00 | 0.00 | 0.00 | 39 | 1010.2 |
| 20260504141017 | 17 | 219 | 3.2 | 19.3 | 0.00 | 0.03 | 0.00 | 41 | 1010.8 |
| 20260504140514 | 17 | 216 | 4.8 | 20.9 | 0.00 | 0.03 | 0.00 | 39 | 1010.9 |
| 20260504130514 | 15 | 190 | 3.2 | 16.1 | 0.00 | 0.03 | 0.00 | 45 | 1011.3 |
| 20260504110514 | 5 | 0 | 0.0 | 0.0 | 0.00 | 0.03 | 0.00 | 79 | 1011.6 |
| 20260504100514 | 3 | 0 | 0.0 | 0.0 | 0.00 | 0.03 | 0.00 | 78 | 1011.4 |
| 20260504081534 | 5 | 0 | 0.0 | 0.0 | 0.00 | 0.03 | 0.00 | 78 | 1011.0 |
| 20260504081012 | 5 | 0 | 0.0 | 0.0 | 0.00 | 0.03 | 0.00 | 78 | 1010.9 |
| 20260504080513 | 5 | 0 | 0.0 | 3.2 | 0.00 | 0.03 | 0.00 | 77 | 1011.0 |
| 20260504050511 | 2 | 0 | 0.0 | 0.0 | 0.00 | 0.03 | 0.00 | 81 | 1010.9 |
| 20260504045511 | 2 | 0 | 0.0 | 1.6 | 0.00 | 0.03 | 0.00 | 81 | 1011.0 |